Home   Weather   Norderstedt   Past weeks

Flag for Germany Past Weather in Norderstedt, Schleswig-Holstein, Germany — Yesterday and Last 2 Weeks

Now
52 °F

Clear.


Feels Like: 49 °F
Forecast: 49 / 62 °F
Wind: 8 mph from Southwest

Location: Hamburg-Fuhlsbuettel

Current Time: Oct 1, 2016 at 12:06:56 AM

Latest Report: Sep 30, 2016 at 11:20 PM


Visibility: 10 mi

Pressure: 29.92 "Hg

Humidity: 88%

Dew Point: 48 °F

Location of NorderstedtLocation

Past Weather in Norderstedt — Graph

°F

Norderstedt Temperature Yesterday

Maximum temperature yesterday: 63 °F (at 1:50 PM)
Minimum temperature yesterday: 52 °F (at 7:50 PM)
Average temperature yesterday: 57 °F

High & Low Weather Summary for the Past Weeks

 TemperatureHumidityPressure
High73 °F (Sep 25, 2:20 PM)100% (Sep 16, 9:20 PM)30.30 "Hg (Sep 16, 9:20 PM)
Low46 °F (Sep 19, 3:20 AM)38% (Sep 25, 3:20 PM)29.77 "Hg (Sep 29, 2:50 PM)
Average60 °F78%30.08 "Hg
* Reported Sep 15 10:20 PM — Sep 30 10:50 PM, Norderstedt, Weather by CustomWeather, © 2016

Note: Actual official high and low records may vary slightly from our data, if they occured in-between our weather recording intervals... More about our weather records

Advertising

Norderstedt Weather History for the Previous 24 Hours

Scroll right to see more
 ConditionsComfort  
Time TempWeatherWind HumidityBarometerVisibility
10:50 PM
Fri, Sep 30
52 °FClear.7 mph88%29.92 "Hg10 mi
10:20 PM52 °FPassing clouds.7 mph82%29.92 "HgN/A
9:50 PM52 °FClear.6 mph82%29.92 "Hg10 mi
9:20 PM52 °FClear.6 mph82%29.89 "Hg10 mi
8:50 PM52 °FPassing clouds.6 mph82%29.89 "HgN/A
8:20 PM52 °FPassing clouds.5 mph82%29.89 "HgN/A
7:50 PM52 °FPassing clouds.6 mph82%29.89 "HgN/A
7:20 PM54 °FPassing clouds.3 mph82%29.89 "HgN/A
6:50 PM54 °FPassing clouds.3 mph77%29.89 "HgN/A
6:20 PM57 °FPartly sunny.3 mph67%29.89 "HgN/A
5:50 PM57 °FSprinkles. Partly sunny.7 mph67%29.89 "HgN/A
5:20 PM57 °FScattered clouds.15 mph67%29.89 "HgN/A
4:50 PM63 °FPassing clouds.14 mph52%29.86 "HgN/A
4:20 PM63 °FPassing clouds.12 mph52%29.86 "HgN/A
3:50 PM63 °FPassing clouds.14 mph52%29.86 "HgN/A
3:20 PM63 °FScattered clouds.13 mph56%29.86 "HgN/A
2:50 PM63 °FScattered showers. Scattered clouds.15 mph56%29.86 "HgN/A
2:20 PM63 °FScattered clouds.16 mph56%29.86 "HgN/A
1:50 PM63 °FScattered clouds.15 mph59%29.86 "HgN/A
1:20 PM61 °FScattered clouds.16 mph68%29.86 "HgN/A
12:50 PM61 °FBroken clouds.17 mph72%29.86 "HgN/A
12:20 PM61 °FPartly sunny.13 mph72%29.86 "HgN/A
11:50 AM61 °FSunny.12 mph72%29.86 "Hg10 mi
11:20 AM59 °FPartly sunny.13 mph77%29.86 "HgN/A
10:50 AM59 °FSunny.14 mph82%29.86 "Hg10 mi
10:20 AM57 °FSunny.13 mph88%29.86 "Hg10 mi
9:50 AM57 °FSunny.13 mph88%29.86 "Hg10 mi
9:20 AM57 °FPartly sunny.10 mph88%29.83 "HgN/A
8:50 AM55 °FPartly sunny.12 mph94%29.83 "HgN/A
8:20 AM55 °FPartly sunny.12 mph94%29.83 "HgN/A
7:50 AM55 °FPartly sunny.12 mph94%29.83 "HgN/A
7:20 AM55 °FSunny.10 mph88%29.83 "Hg10 mi
6:50 AM55 °FClear.10 mph88%29.83 "Hg10 mi
6:20 AM55 °FClear.12 mph94%29.83 "Hg10 mi
5:50 AM55 °FPassing clouds.12 mph94%29.83 "HgN/A
5:20 AM55 °FPassing clouds.10 mph94%29.80 "HgN/A
4:50 AM55 °FPassing clouds.9 mph94%29.80 "HgN/A
4:20 AM55 °FPassing clouds.10 mph94%29.80 "HgN/A
3:50 AM55 °FPassing clouds.10 mph94%29.80 "HgN/A
3:20 AM55 °FPartly cloudy.12 mph94%29.80 "HgN/A
2:50 AM55 °FPassing clouds.10 mph94%29.80 "HgN/A
2:20 AM55 °FPassing clouds.9 mph94%29.80 "HgN/A
1:50 AM57 °FPassing clouds.10 mph88%29.80 "HgN/A
1:20 AM57 °FPartly cloudy.10 mph88%29.80 "HgN/A
12:50 AM57 °FPassing clouds.10 mph88%29.80 "HgN/A
12:20 AM57 °FPassing clouds.10 mph88%29.80 "HgN/A
Weather by CustomWeather, © 2016

See weather overviewHow to use our weather pages